| time (UTC) | temp C | wind direction | speed KPH | gust KPH | rain 1hr cm | rain 24hr cm | rain mn cm | humidity % | barometer mb |
| 20260510040005 | 23 | 178 | 0.0 | 0.0 | 0.00 | 0.00 | 0.03 | 72 | 1007.0 |
| 20260510034559 | 23 | 178 | 0.0 | 0.0 | 0.00 | 0.00 | 0.03 | 74 | 1007.0 |
| 20260510033002 | 23 | 178 | 0.0 | 0.0 | 0.00 | 0.00 | 0.03 | 77 | 1007.0 |
| 20260510031505 | 23 | 178 | 0.0 | 0.0 | 0.00 | 0.00 | 0.03 | 77 | 1006.9 |
| 20260510030002 | 23 | 178 | 0.0 | 0.0 | 0.00 | 0.00 | 0.03 | 77 | 1007.1 |
| 20260510024557 | 23 | 178 | 0.0 | 0.0 | 0.00 | 0.00 | 0.03 | 76 | 1006.8 |
| 20260510023003 | 24 | 178 | 0.0 | 0.0 | 0.00 | 0.00 | 0.03 | 74 | 1006.5 |
| 20260510021603 | 25 | 178 | 0.0 | 0.0 | 0.00 | 0.00 | 0.03 | 72 | 1006.2 |
| 20260510020104 | 25 | 178 | 0.0 | 0.0 | 0.00 | 0.00 | 0.03 | 70 | 1006.0 |
| 20260510014502 | 26 | 178 | 0.0 | 0.0 | 0.00 | 0.00 | 0.03 | 65 | 1005.7 |
| 20260510011503 | 27 | 178 | 0.0 | 0.0 | 0.00 | 0.00 | 0.03 | 61 | 1005.1 |
| 20260510004554 | 28 | 178 | 0.0 | 0.0 | 0.00 | 0.00 | 0.03 | 59 | 1004.4 |
| 20260510001505 | 29 | 192 | 0.0 | 0.0 | 0.00 | 0.00 | 0.03 | 55 | 1004.2 |
| 20260509234617 | 30 | 194 | 0.0 | 0.0 | 0.00 | 0.00 | 0.03 | 49 | 1004.2 |
| 20260509233006 | 30 | 194 | 0.0 | 0.0 | 0.00 | 0.00 | 0.03 | 51 | 1004.1 |
| 20260509230016 | 30 | 195 | 0.0 | 0.0 | 0.00 | 0.00 | 0.03 | 50 | 1004.0 |
| 20260509224503 | 30 | 195 | 0.0 | 0.0 | 0.00 | 0.00 | 0.03 | 48 | 1004.2 |
| 20260509223010 | 30 | 195 | 0.0 | 0.0 | 0.00 | 0.00 | 0.03 | 49 | 1004.0 |
| 20260509221515 | 30 | 195 | 0.0 | 0.0 | 0.00 | 0.00 | 0.03 | 52 | 1004.2 |
| 20260509220002 | 29 | 195 | 0.0 | 0.0 | 0.00 | 0.00 | 0.03 | 52 | 1004.2 |
| 20260509214533 | 30 | 195 | 0.0 | 0.0 | 0.00 | 0.00 | 0.03 | 49 | 1004.3 |
| 20260509213103 | 30 | 206 | 0.0 | 0.0 | 0.00 | 0.00 | 0.03 | 50 | 1004.3 |
| 20260509211508 | 30 | 206 | 0.0 | 0.0 | 0.00 | 0.00 | 0.03 | 48 | 1004.6 |
| 20260509210016 | 30 | 207 | 0.0 | 0.0 | 0.00 | 0.00 | 0.03 | 49 | 1004.5 |
| 20260509204531 | 30 | 206 | 0.0 | 0.0 | 0.00 | 0.00 | 0.03 | 49 | 1004.7 |
| 20260509203004 | 30 | 200 | 0.0 | 0.0 | 0.00 | 0.00 | 0.03 | 54 | 1005.1 |
| 20260509201504 | 30 | 211 | 0.0 | 0.0 | 0.00 | 0.00 | 0.03 | 57 | 1005.5 |
| 20260509200111 | 29 | 222 | 0.0 | 0.0 | 0.00 | 0.00 | 0.03 | 55 | 1005.8 |
| 20260509194506 | 30 | 222 | 0.0 | 0.0 | 0.00 | 0.00 | 0.03 | 55 | 1005.8 |
| 20260509193117 | 29 | 222 | 0.0 | 0.0 | 0.00 | 0.00 | 0.03 | 58 | 1006.1 |
| 20260509184502 | 28 | 182 | 0.0 | 0.0 | 0.00 | 0.00 | 0.03 | 65 | 1006.5 |
| 20260509183007 | 27 | 182 | 0.0 | 0.0 | 0.00 | 0.00 | 0.03 | 62 | 1006.9 |
| 20260509181605 | 27 | 181 | 0.0 | 0.0 | 0.00 | 0.00 | 0.03 | 68 | 1007.0 |
| 20260509180104 | 27 | 181 | 0.0 | 0.0 | 0.00 | 0.00 | 0.03 | 67 | 1007.1 |
| 20260509174524 | 27 | 181 | 0.0 | 0.0 | 0.00 | 0.00 | 0.03 | 68 | 1007.6 |
| 20260509173003 | 26 | 180 | 0.0 | 0.0 | 0.00 | 0.00 | 0.03 | 68 | 1007.6 |
| 20260509171627 | 26 | 180 | 0.0 | 0.0 | 0.00 | 0.00 | 0.03 | 73 | 1007.8 |
| 20260509170003 | 25 | 180 | 0.0 | 0.0 | 0.00 | 0.00 | 0.03 | 74 | 1008.0 |
| 20260509164520 | 25 | 180 | 0.0 | 0.0 | 0.00 | 0.00 | 0.03 | 74 | 1008.1 |
| 20260509163124 | 24 | 180 | 0.0 | 0.0 | 0.00 | 0.00 | 0.03 | 74 | 1008.3 |
| 20260509161502 | 25 | 180 | 0.0 | 0.0 | 0.00 | 0.00 | 0.03 | 71 | 1008.2 |
| 20260509160015 | 24 | 179 | 0.0 | 0.0 | 0.00 | 0.00 | 0.03 | 64 | 1008.2 |
| 20260509154519 | 23 | 152 | 0.0 | 0.0 | 0.00 | 0.00 | 0.03 | 100 | 1008.9 |
| 20260509151606 | 21 | 152 | 0.0 | 0.0 | 0.00 | 0.00 | 0.03 | 100 | 1009.0 |
| 20260509144507 | 21 | 136 | 0.0 | 0.0 | 0.00 | 0.00 | 0.03 | 100 | 1009.5 |
| 20260509143004 | 21 | 136 | 0.0 | 0.0 | 0.00 | 0.00 | 0.03 | 100 | 1009.4 |
| 20260509141603 | 21 | 136 | 0.0 | 0.0 | 0.00 | 0.00 | 0.03 | 100 | 1009.3 |
| 20260509140007 | 21 | 136 | 0.0 | 0.0 | 0.00 | 0.00 | 0.03 | 100 | 1009.0 |
| 20260509134513 | 21 | 136 | 0.0 | 0.0 | 0.00 | 0.00 | 0.03 | 100 | 1009.0 |
| 20260509133103 | 21 | 136 | 0.0 | 0.0 | 0.00 | 0.00 | 0.03 | 100 | 1009.0 |
| 20260509131508 | 20 | 136 | 0.0 | 0.0 | 0.00 | 0.00 | 0.03 | 100 | 1009.0 |
| 20260509130108 | 20 | 136 | 0.0 | 0.0 | 0.00 | 0.00 | 0.03 | 100 | 1009.0 |
| 20260509124513 | 20 | 136 | 0.0 | 0.0 | 0.00 | 0.00 | 0.03 | 100 | 1008.7 |
| 20260509123003 | 21 | 136 | 0.0 | 0.0 | 0.00 | 0.00 | 0.03 | 100 | 1008.4 |
| 20260509120108 | 20 | 136 | 0.0 | 0.0 | 0.00 | 0.00 | 0.03 | 100 | 1008.4 |
| 20260509114512 | 20 | 136 | 0.0 | 0.0 | 0.00 | 0.00 | 0.03 | 100 | 1008.7 |
| 20260509113003 | 20 | 140 | 0.0 | 0.0 | 0.00 | 0.00 | 0.03 | 100 | 1008.6 |
| 20260509110002 | 20 | 140 | 0.0 | 0.0 | 0.00 | 0.00 | 0.03 | 100 | 1007.9 |
| 20260509104517 | 20 | 140 | 0.0 | 0.0 | 0.00 | 0.00 | 0.03 | 100 | 1008.0 |
| 20260509103103 | 20 | 140 | 0.0 | 0.0 | 0.00 | 0.00 | 0.00 | 100 | 1007.8 |
| 20260509101503 | 20 | 140 | 0.0 | 0.0 | 0.00 | 0.00 | 0.00 | 100 | 1007.6 |
| 20260509094502 | 20 | 140 | 0.0 | 0.0 | 0.00 | 0.00 | 0.00 | 100 | 1007.2 |
| 20260509093103 | 20 | 140 | 0.0 | 0.0 | 0.00 | 0.00 | 0.00 | 100 | 1006.9 |
| 20260509091507 | 20 | 140 | 0.0 | 0.0 | 0.00 | 0.00 | 0.00 | 100 | 1007.1 |
| 20260509090108 | 21 | 140 | 0.0 | 0.0 | 0.00 | 0.00 | 0.00 | 100 | 1007.0 |
| 20260509084604 | 21 | 140 | 0.0 | 0.0 | 0.00 | 0.00 | 0.00 | 100 | 1007.0 |
| 20260509083007 | 21 | 140 | 0.0 | 0.0 | 0.00 | 0.00 | 0.00 | 100 | 1007.1 |
| 20260509081603 | 21 | 140 | 0.0 | 0.0 | 0.00 | 0.00 | 0.00 | 100 | 1007.5 |
| 20260509074510 | 21 | 140 | 0.0 | 0.0 | 0.00 | 0.00 | 0.00 | 100 | 1007.2 |
| 20260509073006 | 21 | 140 | 0.0 | 0.0 | 0.00 | 0.00 | 0.00 | 100 | 1007.0 |
| 20260509071622 | 21 | 140 | 0.0 | 0.0 | 0.00 | 0.00 | 0.00 | 100 | 1007.1 |
| 20260509070104 | 20 | 140 | 0.0 | 0.0 | 0.00 | 0.00 | 0.00 | 100 | 1007.0 |
| 20260509064608 | 21 | 140 | 0.0 | 0.0 | 0.00 | 0.00 | 0.00 | 100 | 1007.1 |
| 20260509063003 | 20 | 140 | 0.0 | 0.0 | 0.00 | 0.00 | 0.00 | 100 | 1007.5 |
| 20260509061503 | 20 | 140 | 0.0 | 0.0 | 0.00 | 0.00 | 0.00 | 1 | 1007.3 |
| 20260509054513 | 20 | 140 | 0.0 | 0.0 | 0.00 | 0.00 | 0.00 | 5 | 1007.7 |
| 20260509053107 | 20 | 140 | 0.0 | 0.0 | 0.00 | 0.00 | 0.00 | 7 | 1008.1 |
| 20260509051507 | 20 | 140 | 0.0 | 0.0 | 0.00 | 0.00 | 0.00 | 9 | 1008.1 |
| 20260509050006 | 20 | 139 | 0.0 | 0.0 | 0.00 | 0.00 | 0.00 | 11 | 1008.7 |
| 20260509044603 | 20 | 138 | 0.0 | 0.0 | 0.00 | 0.00 | 0.00 | 13 | 1008.5 |